Date String (YYYY-MM-DD hh:mm:ss) UTC,Instrument flags,Ambient pressure (hPa),Sample flow (lpm),Bypass flow (lpm),Sample temperature (°C),Ambient temperature (°C),ASC tube jacket temperature (°C),LED temperature (°C),Box temperature (°C),Sample RH (%),Span deviation,Mass concentration (μg/m³),Mass concentration (μg/m³),Mass concentration (μg/m³)
DateTimeUTC,F1_M11,P_M11,Q1_M11,Q2_M11,T1_M11,T2_M11,T3_M11,T4_M11,T5_M11,U1_M11,ZSPAN_M11,X0_M11,X2_M11,X1_M11
2023-04-13 00:00:00,,0820.2,4.99,0.00,29.7,26.7,00.0,38.1,31.1,08.9,0000.0,0008.28,0003.28,0002.31
2023-04-13 00:01:00,,0820.1,5.00,0.00,29.7,27.1,00.0,38.1,31.1,08.7,0000.0,0008.21,0003.27,0002.31
2023-04-13 00:02:00,,0820.1,5.01,0.00,29.7,27.4,00.0,38.1,31.1,08.6,0000.0,0008.58,0003.26,0002.32
2023-04-13 00:03:00,,0820.1,5.00,0.00,29.7,27.6,00.0,38.1,31.2,08.7,0000.0,0008.66,0003.28,0002.32
2023-04-13 00:04:00,,0820.1,5.00,0.00,29.7,27.8,00.0,38.1,31.2,08.7,0000.0,0008.85,0003.31,0002.32
2023-04-13 00:05:00,,0820.1,5.00,0.00,29.8,28.0,00.0,38.1,31.3,08.5,0000.0,0008.73,0003.34,0002.32
2023-04-13 00:06:00,,0820.1,4.99,0.00,29.8,28.2,00.0,38.2,31.3,08.5,0000.0,0008.77,0003.36,0002.32
2023-04-13 00:07:00,,0820.1,5.01,0.00,29.8,28.3,00.0,38.2,31.4,08.4,0000.0,0008.74,0003.35,0002.32
2023-04-13 00:08:00,,0820.1,5.00,0.00,29.8,28.4,00.0,38.2,31.4,08.5,0000.0,0008.46,0003.34,0002.32
2023-04-13 00:09:00,,0820.2,5.00,0.00,29.9,28.5,00.0,38.2,31.4,08.6,0000.0,0008.02,0003.32,0002.31
2023-04-13 00:10:00,,0820.1,5.00,0.00,29.9,28.6,00.0,38.2,31.6,08.5,0000.0,0007.97,0003.30,0002.32
2023-04-13 00:11:00,,0820.1,5.00,0.00,29.9,28.7,00.0,38.2,31.6,08.6,0000.0,0008.43,0003.30,0002.33
2023-04-13 00:12:00,,0820.0,4.99,0.00,30.0,28.7,00.0,38.3,31.6,08.7,0000.0,0008.81,0003.29,0002.32
2023-04-13 00:13:00,,0820.0,5.00,0.00,30.0,28.8,00.0,38.3,31.6,08.4,0000.0,0008.38,0003.28,0002.33
2023-04-13 00:14:00,,0820.0,4.99,0.00,30.0,28.9,00.0,38.3,31.7,08.6,0000.0,0008.04,0003.25,0002.32
2023-04-13 00:15:00,,0820.2,4.99,0.00,30.1,28.7,00.0,38.3,31.8,08.6,0000.0,0007.68,0003.23,0002.31
2023-04-13 00:16:00,,0820.0,5.00,0.00,30.1,27.1,00.0,38.2,31.6,08.5,0000.0,0007.69,0003.22,0002.31
2023-04-13 00:17:00,,0820.0,4.99,0.00,30.0,25.7,00.0,38.2,31.3,08.6,0000.0,0007.59,0003.17,0002.30
2023-04-13 00:18:00,,0819.9,5.00,0.00,29.9,25.6,00.0,38.1,31.2,08.4,0000.0,0007.69,0003.19,0002.31
2023-04-13 00:19:00,,0820.0,5.02,0.00,29.8,25.9,00.0,38.1,31.0,08.4,0000.0,0007.49,0003.19,0002.31
2023-04-13 00:20:00,,0820.0,4.99,0.00,29.7,26.2,00.0,38.1,31.0,08.4,0000.0,0007.39,0003.18,0002.32
2023-04-13 00:21:00,,0820.0,5.00,0.00,29.7,26.6,00.0,38.1,31.0,08.5,0000.0,0007.39,0003.18,0002.31
2023-04-13 00:22:00,,0819.9,5.01,0.00,29.7,26.9,00.0,38.1,31.0,08.7,0000.0,0006.77,0003.16,0002.30
2023-04-13 00:23:00,,0820.0,4.99,0.00,29.7,27.2,00.0,38.1,31.1,08.7,0000.0,0006.42,0003.13,0002.29
2023-04-13 00:24:00,,0820.0,4.99,0.00,29.7,27.5,00.0,38.1,31.1,08.6,0000.0,0006.76,0003.13,0002.28
2023-04-13 00:25:00,,0820.1,4.99,0.00,29.7,27.7,00.0,38.1,31.2,08.6,0000.0,0006.85,0003.13,0002.27
2023-04-13 00:26:00,,0820.0,5.00,0.00,29.7,27.9,00.0,38.1,31.2,08.6,0000.0,0006.64,0003.10,0002.27
2023-04-13 00:27:00,,0820.0,5.00,0.00,29.8,28.1,00.0,38.1,31.3,08.7,0000.0,0006.52,0003.06,0002.26
2023-04-13 00:28:00,,0820.0,5.00,0.00,29.8,28.2,00.0,38.1,31.3,08.8,0000.0,0007.64,0003.10,0002.26
2023-04-13 00:29:00,,0820.1,4.99,0.00,29.8,28.3,00.0,38.2,31.4,08.7,0000.0,0008.18,0003.12,0002.26
2023-04-13 00:30:00,,0820.1,5.00,0.00,29.9,28.5,00.0,38.2,31.4,08.9,0000.0,0008.37,0003.13,0002.26
2023-04-13 00:31:00,,0820.0,4.99,0.00,29.9,28.5,00.0,38.2,31.4,08.9,0000.0,0008.90,0003.16,0002.25
2023-04-13 00:32:00,,0820.1,4.99,0.00,29.9,28.6,00.0,38.2,31.5,08.6,0000.0,0009.33,0003.16,0002.25
2023-04-13 00:33:00,,0820.0,5.00,0.00,29.9,28.7,00.0,38.2,31.6,08.3,0000.0,0010.19,0003.15,0002.24
2023-04-13 00:34:00,,0820.0,5.00,0.00,30.0,28.8,00.0,38.3,31.6,08.2,0000.0,0010.24,0003.17,0002.23
2023-04-13 00:35:00,,0820.0,5.01,0.00,30.0,28.8,00.0,38.3,31.7,08.2,0000.0,0010.05,0003.16,0002.23
2023-04-13 00:36:00,,0820.1,5.00,0.00,30.0,28.8,00.0,38.3,31.7,08.4,0000.0,0010.98,0003.20,0002.23
2023-04-13 00:37:00,,0820.0,4.98,0.00,30.0,27.7,00.0,38.3,31.6,08.8,0000.0,0011.16,0003.26,0002.23
2023-04-13 00:38:00,,0820.0,5.00,0.00,30.0,25.9,00.0,38.2,31.2,08.7,0000.0,0011.26,0003.26,0002.23
2023-04-13 00:39:00,,0820.0,5.02,0.00,29.9,25.4,00.0,38.1,31.1,08.4,0000.0,0011.06,0003.23,0002.24
2023-04-13 00:40:00,,0819.9,5.00,0.00,29.8,25.7,00.0,38.1,31.0,08.5,0000.0,0010.98,0003.20,0002.22
2023-04-13 00:41:00,,0819.9,5.00,0.00,29.7,26.0,00.0,38.1,30.9,08.9,0000.0,0010.81,0003.20,0002.20
2023-04-13 00:42:00,,0820.0,4.99,0.00,29.7,26.3,00.0,38.1,30.9,09.1,0000.0,0010.82,0003.19,0002.20
2023-04-13 00:43:00,,0819.9,5.00,0.00,29.7,26.7,00.0,38.1,31.0,09.4,0000.0,0010.51,0003.21,0002.21
2023-04-13 00:44:00,,0819.9,5.01,0.00,29.6,27.1,00.0,38.1,31.1,09.5,0000.0,0009.82,0003.26,0002.24
2023-04-13 00:45:00,,0820.0,5.01,0.00,29.7,27.3,00.0,38.1,31.1,09.3,0000.0,0009.65,0003.26,0002.25
2023-04-13 00:46:00,,0820.1,5.00,0.00,29.7,27.6,00.0,38.1,31.2,09.4,0000.0,0009.60,0003.27,0002.26
2023-04-13 00:47:00,,0820.3,4.98,0.00,29.7,27.8,00.0,38.1,31.2,09.3,0000.0,0008.85,0003.27,0002.27
2023-04-13 00:48:00,,0819.9,5.01,0.00,29.7,27.9,00.0,38.1,31.2,09.2,0000.0,0009.72,0003.25,0002.27
2023-04-13 00:49:00,,0820.0,5.00,0.00,29.7,28.1,00.0,38.1,31.3,09.2,0000.0,0009.85,0003.28,0002.27
2023-04-13 00:50:00,,0820.0,5.01,0.00,29.7,28.2,00.0,38.1,31.3,09.2,0000.0,0009.46,0003.31,0002.27
2023-04-13 00:51:00,,0820.0,5.01,0.00,29.8,28.3,00.0,38.1,31.4,09.3,0000.0,0008.77,0003.32,0002.28
2023-04-13 00:52:00,,0820.0,4.99,0.00,29.8,28.4,00.0,38.1,31.4,09.6,0000.0,0008.77,0003.33,0002.28
2023-04-13 00:53:00,,0820.0,5.00,0.00,29.8,28.5,00.0,38.1,31.5,09.8,0000.0,0008.38,0003.30,0002.28
2023-04-13 00:54:00,,0820.0,4.99,0.00,29.9,28.6,00.0,38.2,31.5,09.9,0000.0,0008.29,0003.29,0002.26
2023-04-13 00:55:00,,0820.1,5.01,0.00,29.9,28.6,00.0,38.2,31.6,09.9,0000.0,0008.32,0003.27,0002.24
2023-04-13 00:56:00,,0820.1,5.00,0.00,29.9,28.7,00.0,38.2,31.6,09.9,0000.0,0008.67,0003.29,0002.23
2023-04-13 00:57:00,,0820.1,5.00,0.00,30.0,28.7,00.0,38.2,31.6,09.9,0000.0,0008.91,0003.33,0002.22
2023-04-13 00:58:00,,0820.1,5.01,0.00,30.0,28.7,00.0,38.2,31.6,09.9,0000.0,0008.86,0003.34,0002.21
2023-04-13 00:59:00,,0820.2,5.00,0.00,30.0,28.8,00.0,38.3,31.7,09.8,0000.0,0007.95,0003.30,0002.20
